Terminal Aerodrome Forecast
Issued by NWS Denver/Boulder, CO

Home | Current Version | Previous Version | Text Only | Print | Product List | Glossary On
Versions: 1 2 3 4 5 6 7 8 9 10 11 12 13 14 15 16 17 18 19 20 21 22 23 24 25 26 27 28 29 30 31 32 33 34 35 36 37 38 39 40 41 42 43 44 45 46 47 48 49 50
000
FTUS45 KBOU 311838 AAA
TAFDEN
TAF AMD
KDEN 311838Z 3119/0124 11011KT P6SM FEW080 SCT120 BKN180
     FM312100 34014G22KT P6SM SCT080 BKN120
      TEMPO 3121/3124 VRB20G32KT
     FM010000 35011KT P6SM SCT080 SCT130
     FM010300 VRB05KT P6SM FEW120
     FM010600 20010KT P6SM SKC
     FM011700 VRB05KT P6SM FEW090 SCT120=

USA.gov is the U.S. government's official web portal to all federal, state and local government web resources and services.